Погода в Вади-ад-Давасире

Саудовская Аравия     20°28′00″N   44°47′46″E
темп.,
°C
ветер,
м/с
пор.,
м/с
влажн.,
%
обл.,
%
осадки,
мм/ч
давл.,
гПа
погр.,
м
19 апреля, пн
пн1900:00+25в46214 0.0 101570
03:00+23в33260 0.0 101518
06:00+22в33260 0.0 101714
09:00+29вюв45160 0.0 1017730
12:00+34в44140 0.0 10143089
15:00+35св22122 0.0 10113810
18:00+32с011446 0.0 101111
21:00+31св441539 0.0 101353
20 апреля, вт
вт2000:00+27всв45135 0.0 101353
03:00+24ююв23133 0.0 101211
06:00+23ююв22150 0.0 101411
09:00+30ю2290 0.0 1015496
12:00+35св3480 0.0 10123517
15:00+36ссв3460 0.0 10093892
18:00+33ссв3370 0.0 100918
21:00+29в3390 0.0 101114
21 апреля, ср
ср2100:00+27юв44100 0.0 101126
03:00+24ююз22120 0.0 101111
06:00+23ююв22130 0.0 101211
09:00+31ююз1180 0.0 1013494
12:00+35в2470 0.0 10113196
15:00+37св2362 0.0 10083618
18:00+34всв22762 0.0 100812
21:00+30вюв449100 0.0 101025
22 апреля, чт
чт2200:00+27ю33119 0.0 101112
03:00+25ю33129 0.0 101112
06:00+23ю331310 0.0 101214
09:00+32юв3480 0.0 1013545
12:00+37юв4560 0.0 10103377
15:00+38в4451 0.0 10074117
18:00+35в4560 0.0 100847
21:00+30в5771 0.0 101068
23 апреля, пт
пт2300:00+27юв4585 0.0 101040
03:00+25ююв3393 0.0 100916
06:00+24ю3490 0.0 101120
09:00+32юв5780 0.0 1011623
12:00+37юв56629 0.0 10093768
15:00+38в555100 0.0 10064361
18:00+35всв456100 0.0 100745
21:00+31в57889 0.0 100968